星链-30964 (STARLINK-30964 )

导读

STARLINK-30964是美国于2023年11月22日发射的星链卫星,隶属于SpaceX公司的星链互联网星座项目。作为星链批量部署的卫星之一,它承担着为全球偏远地区、海洋等传统网络覆盖盲区提供高速低延迟宽带互联网接入服务的任务,助力星链星座完成全球组网布局。

基本信息
目录编号:
58402
目录名称:
STARLINK-30964
国际标识:
2023-180A
轨道中心:
EARTH
卫星名称:
星链-30964
卫星全名:
星链-30964 (STARLINK-30964 )
卫星状态:
在轨 (已飞行939 天)
发射日期:
2023-11-22 UTC
国别 :
美国 (US)
星等 :
--
轨道信息
数据来源 国际轨道数据 AOE轨道数据
星历时间 2026-06-16T17:44:21+0800
1天前
查看轨道信息
2026-06-16T06:00:00+0800
2天前
查看轨道信息
半长轴 6861.184km 6861.187km
偏心率 0.0001289 0.0000078
轨道倾角 43.003° 43.001°
近地点辐角 257.709° 163.801°
升交点赤经 215.028° 217.796°
平近点角 102.361° 23.139°
近地点 482.162km 482.996km
远地点 483.932km 483.104km
周期 94.267分钟 94.267分钟
每日圈数 15.275807 15.275797
详细信息
固有亮度:
5
最大亮度:
0.3
卫星平台:
Starlink v2.0 mini
覆盖范围:
全球
运营商:
太空探索技术公司
运营商所在国:
美国
制造商(研发单位):
太空探索技术公司
制造商所在国:
美国
使用方式:
暂无
卫星简介
星链(Starlink)计划是由太空探索技术公司(SpaceX)提出的一个巨型低轨卫星互联网星座项目,计划在2019年至2024年间在太空搭建由约1.2万颗卫星组成的“星链”网络,其中1584颗将部署在地球上空550千米处的近地轨道,并从2020年开始工作。该卫星仍在工作。
2D轨道图
3D轨道图
轨道高度分析图
轨道倾角分析图
轨道综合分析图
查看轨道综合分析图